[Date Prev][Date Next][Thread Prev][Thread Next] - [Date Index][Thread Index][Author Index]

2 Line ISS Keps 9-19



ISS
1 25544U 98067A   04263.13017361  .00022793  00000-0  19093-3 0  7207
2 25544  51.6349 206.2327 0005397 164.0310  33.2507 15.69856801333076
----
Via the sarex mailing list at AMSAT.ORG courtesy of AMSAT-NA.
To unsubscribe, send "unsubscribe sarex" to Majordomo@amsat.org



AMSAT Top AMSAT Home